Temp_Advection
nan nan nan nan nan nan nan nan nan nan nan nan nan nan nan nan nan nan nan nan nan nan nan nan nan nan nan nan nan nan nan nan nan nan nan nan nan nan nan nan nan nan nan nan nan nan nan nan nan nan nan nan
nan -0 -0 -0 -0 -0 -0 -0 -0 -0 -0 -0 -0 -0 -0 0 -0 -0 -0 -0 0 -0 -0 0 0 -0 0 0 0 0 0 0 -0 -0 -0 -0 0 0 1 1 0 0 0 -0 -0 0 0 -0 -0 -1 -1 nan
nan -0 -0 -0 -0 -0 -0 -0 -0 -0 -0 -0 -0 -0 -0 -0 0 -0 -0 0 0 0 0 0 0 0 0 -0 0 0 0 0 0 0 -0 -0 -0 -0 0 0 0 0 0 0 -0 -0 0 0 0 -0 -1 nan
nan -0 -0 -0 -0 -0 -0 -0 -0 -0 -0 -0 -0 -0 -0 -0 -0 -0 -0 -0 0 0 0 0 0 0 0 0 -0 -0 0 0 0 0 0 -0 -0 -1 -1 -0 -0 -0 0 0 0 -0 -0 0 0 0 -0 nan
nan -0 -0 -0 -0 -0 -0 -0 -0 -0 -0 -0 -0 -1 -1 -0 -0 -0 -0 -0 -0 0 0 0 0 0 0 0 0 -0 0 0 0 0 0 0 0 -0 -1 -1 -0 -0 -0 0 0 -0 -0 -0 0 0 0 nan
nan -0 -0 -0 -0 -0 -0 -0 -0 -0 -0 -0 -0 -0 -1 -1 -1 -0 -0 -0 -0 -0 -0 0 0 -0 -0 0 0 -0 0 0 0 0 0 0 0 0 -0 -0 -0 -0 -0 -0 0 -0 -0 -0 -0 0 0 nan
nan -0 -0 -0 -0 -0 -0 -0 -0 -0 -0 -0 -0 -0 -0 -1 -1 -1 -1 -1 -1 -1 -0 -0 -0 -0 -0 -0 -0 -0 -0 0 0 0 0 -0 0 0 0 -0 -0 -0 -0 -0 -0 -0 -0 -0 -0 -0 -0 nan
nan -0 -0 -0 -0 -0 -0 -0 -0 -0 -0 -0 -0 -0 -0 -1 -1 -1 -1 -1 -1 -1 -1 -0 -0 -0 -0 -0 -0 -0 -0 0 0 0 0 0 0 -0 -0 -0 -0 -0 -0 -0 -0 -0 -0 -0 -0 -0 -0 nan
nan -0 -0 -0 -0 -0 -0 -0 -0 -0 -0 -0 -0 -0 -0 -0 -0 -1 -1 -1 -1 -1 -1 -1 -0 -0 -0 -0 -0 -1 -0 -0 -0 -0 -0 0 0 0 -0 -0 -0 -0 -0 -0 -0 -0 -0 -0 0 -0 -0 nan
nan -0 -0 -0 -0 -0 -0 -0 -0 -0 0 0 0 -0 -0 -0 -0 -0 -0 -1 -0 -1 -1 -1 -1 -0 -1 -1 -0 -1 -1 -0 -0 -0 -0 -0 -0 0 0 0 -0 -0 -0 -0 -0 -0 -0 -0 0 0 0 nan
nan -0 0 0 0 0 0 0 0 0 0 0 0 0 0 -0 -0 -0 -0 -0 -0 -0 -0 -0 -0 -0 -1 -1 -0 -1 -1 -0 -0 -1 -1 -1 -0 -0 0 0 0 -0 -0 -0 -1 -1 -0 -0 -0 -0 0 nan
nan 0 0 0 0 0 0 0 0 0 0 0 0 0 0 0 -0 -0 -0 -0 -0 -0 -0 -0 -0 -0 -0 -0 -0 -0 -1 -1 -1 -0 -1 -1 -0 -0 -0 -0 0 0 -0 -0 -0 -1 -1 -1 -1 -0 -0 nan
nan 0 0 0 0 0 0 0 0 0 1 1 1 1 1 0 0 -0 -0 -0 -0 -0 -0 -0 -0 -0 -0 -0 -0 -0 -0 -1 -1 -1 -1 -0 -0 -0 -0 -0 -0 -0 0 0 -0 -1 -1 -1 -1 -1 -0 nan
nan -0 -0 -0 -0 -0 -0 -0 0 0 0 0 0 1 1 1 0 0 -0 -0 -0 -0 -0 -0 -0 -0 -0 0 0 -0 -0 -1 -1 -1 -1 -1 -0 -0 -1 -0 -0 -1 -1 -0 0 -0 -1 -1 -1 -1 -1 nan
nan -0 -0 -0 -0 -0 -0 -0 -0 -0 -0 -0 -0 0 0 0 0 0 0 0 0 -0 -0 -0 -0 -0 -0 0 1 0 -0 -0 -0 -1 -1 -1 -1 -1 -1 -1 -0 -0 -1 -1 -0 -0 -0 -1 -1 -1 -1 nan
nan -0 -0 -0 0 -0 -0 -0 -0 -0 -0 -0 -0 -0 -0 -0 0 0 0 0 -0 -0 -0 -0 -1 -0 -0 -0 0 0 -0 -0 -0 -0 -0 -0 -0 -1 -1 -1 -1 -0 -1 -1 -1 -1 -0 -0 -1 -0 -1 nan
nan -0 -0 -0 -0 -0 -0 -0 -0 -0 -0 -0 -0 -0 -0 -0 -0 -0 -0 -0 -0 -0 -0 -1 -1 -1 -0 -0 -0 0 -0 -0 -0 -0 -0 1 0 -0 -0 -1 -1 -1 -1 -1 -1 -1 -1 -1 -1 -1 -1 nan
nan -1 -1 -1 -1 -1 -0 -0 -0 -0 -0 -0 -0 -0 -0 -0 -0 -0 -0 -0 -0 -0 -0 -0 -1 -1 -1 -0 -0 -0 -0 -0 -1 -1 -1 -0 0 0 0 -0 -0 -1 -1 -1 -0 -1 -1 -1 -1 -1 -1 nan
nan -1 -1 -1 -1 -1 -1 -0 -0 -0 -0 -0 -0 -0 -0 -0 -0 -0 -0 -0 -0 -0 -0 -0 -0 -0 -1 -0 -0 -1 -0 -0 -0 -0 -1 -1 -1 -0 -0 -0 -0 -0 -1 -1 -1 -0 -1 -1 -1 -1 -1 nan
nan -1 -1 -1 -0 -0 -0 -0 -0 -0 -0 -0 -0 -0 -0 -0 -0 -0 -0 -0 -0 -0 -0 -0 -0 -0 -0 -1 -1 -1 -1 -1 -1 -0 -0 -0 -0 -1 -1 -1 -1 -0 -0 -1 -1 -1 -1 -1 -1 -1 -1 nan
nan -1 -1 -1 -1 -0 -0 -0 -0 -0 0 0 0 0 0 -0 -0 -0 -0 -0 -1 -1 -1 -0 -0 -0 -0 -1 -1 -1 -1 -1 -1 -1 -1 -0 0 -0 -1 -1 -1 -1 -0 -1 -2 -2 -1 -1 -1 -1 -1 nan
nan -0 -0 -0 -1 -1 -1 -1 -1 -1 -0 -0 -0 0 0 0 0 0 -0 -0 -0 -1 -1 -1 -1 -1 -0 -0 -1 -1 -1 -1 -1 -0 -1 -1 -0 0 -0 -1 -1 -1 -1 -1 -2 -2 -2 -1 -1 -2 -1 nan
nan -0 -0 -0 -0 -0 -0 -1 -1 -1 -1 -1 -0 -0 -0 0 0 1 1 0 0 0 -0 -0 -0 -0 -0 -0 -0 -0 -0 -0 -0 -0 -0 -1 -0 0 -0 -0 -0 -1 -0 -1 -1 -2 -2 -1 -1 -2 -1 nan
nan -0 -0 -0 -0 -0 -0 -0 -0 -0 -0 -0 -1 -1 -1 -1 -0 0 1 1 1 0 0 0 0 -0 -0 -0 -0 0 -0 -0 -0 -0 -0 -0 -0 -0 -0 -0 -0 -0 -0 -0 -1 -1 -1 -1 -1 -1 -1 nan
nan -0 -1 -1 -0 -0 -0 -0 -0 -0 -0 -0 -0 -0 -0 -1 -1 -0 -0 1 1 0 0 0 0 0 0 0 -0 -0 -0 -0 -0 -0 -0 -0 -0 -0 -0 -0 -0 -0 -0 -0 -1 -1 -2 -1 -1 -1 -1 nan
nan -0 -0 -0 -0 -1 -1 -0 -0 -1 -1 -0 -0 -0 0 -0 -0 -0 -0 0 1 0 -0 -0 -0 0 0 0 0 0 -0 -0 -0 -0 -0 -0 -0 0 0 -0 0 0 0 -0 -0 -1 -2 -3 -2 -1 -1 nan
nan -0 -0 -0 -0 -0 -1 -0 -0 -0 -0 -0 -0 0 0 0 0 -0 -1 -0 1 0 -0 -0 -0 -0 -0 0 0 0 0 0 0 -0 -0 -0 -0 -0 0 -0 0 0 0 0 0 0 -1 -3 -4 -4 -2 nan
nan -0 -0 -0 0 -0 -0 -1 -1 -0 -0 -0 -1 -1 -0 -0 -0 -0 -1 -0 0 0 -0 -1 -1 -1 -0 -0 -0 -0 -0 0 0 0 0 0 -0 -0 -0 0 0 0 0 0 0 1 0 -0 -2 -3 -3 nan
nan -1 -1 -1 -1 -1 -1 -1 -1 -2 -2 -2 -2 -1 -1 -1 -1 -1 -1 -0 -0 -0 -0 -0 -0 -1 -1 -1 -0 -0 -0 -0 0 0 0 0 0 0 -0 -0 0 0 0 0 1 1 1 1 0 -1 -2 nan
nan -1 -1 -1 -2 -2 -2 -2 -2 -2 -3 -3 -3 -2 -1 -1 -1 -1 -1 -1 -1 -0 -0 -0 -0 -0 -1 -1 -1 -0 -0 -0 -0 -0 -0 0 1 1 0 -0 0 0 0 0 1 1 1 1 1 -0 -0 nan
nan nan nan nan nan nan nan nan nan nan nan nan nan nan nan nan nan nan nan nan nan nan nan nan nan nan nan nan nan nan nan nan nan nan nan nan nan nan nan nan nan nan nan nan nan nan nan nan nan nan nan nan
Wind_Speed
6 6 6 7 8 8 9 9 9 9 9 10 10 10 10 10 10 10 11 11 11 11 12 12 13 13 14 14 15 15 15 15 15 14 14 14 14 14 14 14 14 13 12 14 15 17 18 20 22 22 21 20
6 6 5 5 6 7 7 7 8 9 9 9 10 10 10 10 11 11 11 11 11 11 11 11 11 12 13 13 13 14 15 15 15 15 15 14 14 14 15 15 15 14 13 14 15 16 17 19 20 21 21 21
5 5 5 5 5 6 7 7 8 10 10 11 11 12 12 12 12 12 12 12 12 12 12 12 12 12 12 13 13 14 14 14 14 14 14 15 15 15 15 16 17 16 15 15 15 15 16 18 19 19 21 21
5 5 5 5 5 6 7 8 10 11 12 13 13 13 14 14 14 14 14 14 14 13 13 13 13 13 13 13 14 14 15 14 14 14 14 14 15 15 15 16 17 17 17 16 16 16 16 17 18 18 20 21
4 5 5 5 6 7 8 10 11 12 13 13 14 15 15 15 15 15 15 15 15 15 15 15 15 15 14 14 15 16 16 16 16 15 15 15 15 15 15 16 16 16 17 17 17 17 17 17 18 18 19 19
4 5 5 6 7 8 9 10 11 12 13 14 14 15 16 16 16 16 16 16 17 17 17 17 17 17 16 16 17 17 17 18 17 17 17 16 16 15 15 15 15 16 16 17 18 18 18 17 18 18 18 18
5 5 6 7 8 9 10 11 12 12 13 14 15 16 17 17 17 17 17 17 18 18 18 19 18 19 19 19 18 19 19 19 19 19 19 19 18 18 17 16 16 16 16 17 18 19 19 18 18 18 18 18
5 6 7 7 8 9 10 11 12 12 13 14 15 16 17 18 18 18 18 18 18 19 19 20 19 20 20 20 20 21 21 21 21 21 21 21 20 20 19 18 17 17 16 16 17 18 19 19 18 18 18 18
6 6 7 8 8 9 10 11 11 12 13 13 14 16 17 18 19 19 19 19 19 19 20 20 20 21 21 21 21 22 23 23 23 23 23 23 22 22 22 21 20 19 19 18 17 17 18 19 19 19 19 18
5 6 6 7 8 9 10 11 11 11 12 13 14 15 16 18 19 20 20 20 21 20 21 21 21 21 22 22 22 23 24 24 25 25 25 25 24 24 24 24 23 22 22 21 19 19 19 19 19 20 20 19
4 5 5 6 8 9 9 10 11 11 12 12 13 14 16 18 19 20 21 21 21 21 22 22 22 22 22 22 22 23 24 25 25 26 26 26 26 26 26 26 25 24 24 23 22 21 20 20 20 20 21 21
4 6 7 8 9 10 11 12 11 12 12 13 13 14 15 17 19 21 21 22 21 22 22 22 22 22 22 22 22 22 23 25 25 26 26 27 27 27 27 27 27 26 26 25 25 24 23 22 22 22 21 22
6 8 9 10 12 12 13 14 14 15 15 15 15 15 16 18 19 21 22 22 22 22 22 22 23 22 22 22 22 22 23 24 25 26 26 26 27 27 28 28 28 28 28 27 26 26 25 24 24 23 23 23
8 9 11 12 14 15 16 17 17 18 18 18 18 17 18 19 20 21 22 22 22 23 23 23 23 23 23 22 21 22 23 23 25 26 26 26 27 27 28 28 28 29 30 29 28 28 28 27 26 25 25 24
8 9 11 13 14 16 17 18 18 19 19 19 19 19 19 20 21 22 22 22 23 23 23 23 23 23 23 23 22 22 23 24 25 26 26 27 27 27 28 28 28 29 30 30 30 30 30 30 29 28 27 27
8 9 10 12 13 15 16 17 17 18 18 18 19 20 20 21 22 23 23 23 23 23 23 23 23 23 23 23 22 22 24 24 25 26 27 27 27 27 28 28 28 28 30 31 31 31 31 32 31 30 30 29
10 10 10 11 12 13 14 15 15 16 16 17 17 18 19 21 21 22 22 22 23 23 23 23 23 22 22 22 22 23 25 26 26 27 28 27 27 28 28 29 29 29 30 30 31 31 32 33 33 33 32 31
14 13 12 11 12 12 13 14 14 14 14 14 15 16 16 17 18 19 20 21 22 22 22 23 22 23 22 22 23 24 25 27 27 28 29 29 29 29 29 30 30 30 30 30 31 31 31 32 33 34 34 33
15 14 13 12 12 12 13 13 13 14 14 14 14 15 15 16 17 18 19 20 21 22 22 23 24 24 24 24 25 26 26 27 28 29 29 29 30 31 30 30 30 30 31 31 31 31 31 32 32 33 34 35
15 14 13 13 13 13 13 14 14 14 14 15 15 16 17 18 19 20 20 21 22 22 23 24 24 25 25 26 26 26 27 27 28 28 29 29 29 31 31 31 31 31 31 32 32 32 32 31 32 33 33 34
15 14 14 13 13 14 14 15 16 16 16 17 18 19 19 20 21 22 22 23 24 24 24 25 25 25 25 25 26 26 26 26 26 26 27 27 27 28 30 31 31 31 31 31 32 32 32 32 32 32 32 32
13 13 14 14 14 14 15 15 16 17 18 19 20 21 21 22 23 23 23 23 24 25 26 26 26 26 25 25 26 26 25 25 24 24 25 25 24 24 26 27 28 29 29 30 31 32 31 31 31 32 32 32
12 13 14 14 14 15 16 17 17 18 20 21 22 22 23 23 24 24 24 24 24 24 25 26 27 27 26 26 26 26 26 25 24 24 24 25 24 23 24 25 25 26 27 29 30 31 31 30 31 30 30 31
13 15 15 16 17 18 19 20 21 21 23 24 25 25 24 23 24 25 26 27 27 26 25 25 26 27 27 27 27 27 26 26 25 25 25 25 25 25 25 25 24 25 27 29 30 30 30 30 30 30 30 29
15 17 19 20 21 22 23 24 25 25 26 28 28 28 27 25 24 24 26 28 29 29 28 28 27 27 26 26 28 28 28 27 27 27 27 27 27 27 27 27 25 24 26 29 31 31 32 32 30 29 28 27
15 17 19 22 23 25 27 27 29 30 31 32 32 32 31 29 28 26 27 27 29 29 29 29 29 28 28 27 27 28 29 29 29 29 29 29 29 28 28 29 26 25 26 27 29 32 35 35 32 31 29 26
16 18 20 23 25 28 30 30 31 33 34 35 36 36 35 34 32 30 29 27 27 28 28 28 29 29 29 28 28 29 30 30 30 30 30 31 32 30 30 30 28 26 26 26 27 28 29 31 35 36 29 23
19 21 23 25 27 29 31 32 34 35 36 38 39 40 40 39 36 33 29 27 26 26 27 27 28 28 29 29 30 31 32 32 30 29 29 30 32 33 33 32 30 28 26 25 25 24 24 26 28 27 25 29
22 25 28 30 32 33 35 36 39 40 41 42 43 43 42 39 36 32 28 26 25 26 26 27 27 28 29 29 30 30 31 32 30 29 29 29 31 33 35 34 32 30 27 26 26 24 24 21 17 20 27 36
26 29 32 35 38 40 43 44 45 44 44 43 42 41 39 36 33 31 28 26 25 26 26 27 28 28 28 29 29 29 30 31 30 30 29 29 30 32 34 35 34 33 29 28 28 27 26 23 21 26 31 30
29 32 35 38 41 44 45 45 44 42 40 38 36 35 34 33 32 30 29 28 27 26 26 27 28 28 29 29 29 29 30 31 31 31 31 30 31 32 33 35 36 35 32 30 30 30 29 29 27 27 28 27
Wind_Direction
23 18 11 7 6 5 5 6 10 13 14 12 11 8 8 5 3 0 357 355 353 352 352 352 351 350 352 351 350 348 349 349 346 345 342 337 335 335 333 330 329 332 329 318 315 314 314 315 315 320 323 324
16 18 15 7 359 358 359 2 5 7 8 5 3 359 358 356 353 351 347 346 343 342 341 340 340 338 339 338 339 339 340 343 343 344 340 335 333 329 329 327 325 330 327 315 310 308 307 308 311 315 317 319
19 21 19 14 0 356 355 357 0 0 0 358 356 352 349 347 345 342 338 336 334 333 331 330 330 328 328 326 325 325 327 330 332 335 334 332 330 327 324 320 321 325 322 314 310 306 304 304 307 310 312 314
28 28 20 15 2 356 354 353 355 356 356 352 350 346 343 341 338 336 331 328 325 323 322 320 319 318 318 317 314 313 314 316 317 320 322 325 325 324 321 318 320 320 317 315 311 306 305 305 305 306 307 309
37 30 18 11 1 355 351 351 352 352 352 350 347 342 339 337 333 331 326 322 319 316 314 312 311 309 308 307 305 305 305 305 306 307 308 311 313 316 316 316 317 315 314 312 310 308 307 306 305 304 303 303
37 25 14 7 358 352 348 350 349 348 348 346 344 341 337 334 330 328 324 320 316 313 310 308 306 304 302 300 299 298 298 299 298 298 299 300 301 304 306 309 310 310 309 309 308 308 307 305 303 301 299 298
29 14 7 1 353 349 347 348 346 345 345 343 341 338 335 331 328 325 322 318 315 312 310 307 305 304 301 298 296 294 292 292 291 291 292 292 293 294 296 299 301 302 303 304 305 305 305 304 301 299 298 297
15 4 360 355 347 344 344 344 342 341 340 339 336 333 331 328 326 323 320 317 315 313 310 308 307 305 302 299 296 293 289 287 286 285 285 286 287 288 289 290 291 293 295 297 299 300 302 302 301 299 298 296
1 355 352 347 341 338 338 337 334 334 333 333 330 329 328 324 322 321 317 316 314 312 309 307 307 306 303 302 300 295 292 288 284 282 281 281 282 284 285 286 287 288 288 289 291 293 295 297 299 299 298 297
345 343 339 333 328 325 325 323 322 323 322 323 322 322 321 319 317 315 314 312 311 310 308 307 306 305 303 303 302 299 295 291 287 284 281 280 280 281 282 283 285 285 286 286 286 287 289 291 293 295 297 297
319 315 311 308 305 305 303 301 303 306 306 309 310 312 313 312 311 310 309 308 307 307 305 305 305 304 304 303 302 301 297 294 291 288 285 282 280 279 280 281 282 283 283 285 285 285 285 286 288 289 292 294
279 283 285 285 284 283 283 284 286 287 290 294 297 301 303 304 304 304 304 304 304 304 303 303 304 303 303 303 302 300 298 295 293 292 289 285 282 279 278 278 279 280 280 281 282 283 283 283 283 285 286 289
280 289 291 291 292 291 292 293 293 293 294 294 294 294 295 296 299 300 301 301 301 301 301 302 301 302 302 301 301 299 296 295 294 293 292 289 286 282 279 278 277 277 277 277 279 280 281 281 281 282 283 284
304 306 307 305 306 305 304 304 303 302 300 298 295 292 291 293 295 298 299 299 299 299 300 301 300 301 300 300 300 297 295 294 294 293 293 292 290 287 283 280 278 277 276 275 276 277 279 279 279 280 281 282
325 321 318 315 313 311 308 307 306 304 303 301 298 295 293 294 296 298 298 298 298 299 300 301 301 301 300 300 298 295 293 293 294 293 294 294 293 291 288 285 282 280 278 276 274 275 276 278 278 278 279 279
356 345 335 327 321 317 314 313 312 310 308 305 302 299 298 299 300 301 302 301 302 302 303 304 304 304 304 303 300 296 295 294 294 294 293 294 293 293 292 289 287 284 282 279 277 275 275 276 276 277 277 277
20 8 353 339 329 325 323 322 323 322 320 315 310 307 305 305 307 308 309 309 309 308 308 309 309 309 309 308 305 302 300 298 297 296 294 294 293 292 292 291 290 288 285 283 282 279 277 276 275 275 276 276
24 16 5 351 340 335 332 329 328 329 329 327 323 319 317 316 316 316 316 316 315 314 313 313 312 311 311 310 308 306 305 303 301 300 297 295 293 291 291 291 291 290 288 287 285 284 281 278 277 276 275 275
26 21 13 3 356 351 346 342 339 336 333 331 329 325 323 321 321 321 320 319 317 316 314 313 311 310 309 309 307 306 305 304 304 302 300 297 294 292 291 290 290 291 291 290 288 287 285 283 281 279 277 276
25 23 20 13 8 4 359 355 350 343 337 331 326 323 322 320 319 319 318 318 316 315 314 312 312 310 309 308 306 306 305 304 304 304 302 300 297 294 293 292 291 291 292 291 290 289 288 287 285 283 281 278
21 20 18 16 13 9 6 3 357 352 346 338 331 325 321 319 318 317 317 316 315 314 313 312 311 312 312 310 308 307 306 305 305 306 305 303 301 298 296 296 295 295 295 294 292 291 290 290 289 287 284 283
13 10 10 9 10 10 9 6 2 0 355 349 342 335 328 321 317 316 316 316 316 315 314 313 312 312 313 312 312 311 309 309 308 308 308 308 307 305 303 302 302 302 301 299 296 295 294 293 291 289 288 286
359 358 358 358 358 358 358 357 356 356 353 350 347 344 339 330 322 315 311 309 308 309 310 310 310 311 311 311 311 311 311 311 310 309 309 309 309 308 308 308 309 310 307 303 301 300 299 297 294 292 290 289
347 346 346 346 345 345 347 346 344 344 342 341 341 341 340 335 328 319 311 306 301 298 298 299 301 304 305 306 306 307 308 309 309 309 307 308 308 307 307 307 309 311 309 306 305 304 301 298 296 295 292 290
342 342 342 343 341 339 340 337 334 333 333 334 335 336 335 333 329 321 314 307 299 292 290 290 290 292 294 296 299 300 302 303 304 304 304 305 305 305 304 304 307 308 307 307 307 308 305 301 300 298 296 292
334 337 338 337 335 332 331 330 330 329 329 329 330 331 331 329 326 320 314 307 297 290 287 286 286 286 287 288 290 292 294 296 297 299 299 299 299 300 299 299 304 305 304 305 308 311 309 307 306 302 301 300
327 330 331 329 327 327 326 325 325 325 326 325 325 326 326 325 323 319 313 305 295 289 286 285 285 285 285 285 286 287 288 288 289 292 294 295 295 294 292 294 297 299 300 301 306 310 309 312 313 308 309 309
321 322 321 320 320 320 320 319 320 320 321 322 322 323 323 322 320 317 311 301 292 288 287 286 285 285 285 284 285 285 285 283 283 284 287 290 291 289 288 290 292 292 295 298 302 304 302 310 312 306 311 312
319 320 319 319 318 318 319 320 321 322 322 322 323 322 322 321 319 316 310 301 291 287 286 286 286 286 285 284 284 283 282 281 280 280 280 283 285 286 286 287 287 287 289 294 297 295 295 302 299 295 308 312
322 323 324 325 326 326 326 326 326 326 325 324 323 321 320 319 318 316 312 305 298 291 288 286 285 285 285 285 284 283 282 281 281 280 279 280 280 282 284 284 282 281 284 290 291 290 291 291 287 294 304 307
325 325 326 327 327 327 327 326 325 325 323 322 321 320 319 318 318 317 314 311 306 300 295 291 288 286 285 284 284 283 283 283 283 282 281 280 278 278 279 278 276 278 282 284 285 290 292 289 288 293 296 295
Height
1547 1547 1547 1548 1548 1548 1548 1548 1548 1547 1547 1546 1546 1545 1545 1544 1544 1543 1543 1542 1542 1541 1540 1540 1539 1538 1538 1537 1536 1536 1535 1535 1535 1534 1534 1534 1533 1532 1531 1531 1530 1530 1529 1529 1528 1527 1526 1525 1523 1522 1522 1522
1546 1547 1547 1547 1548 1548 1548 1548 1547 1547 1547 1546 1546 1545 1545 1544 1543 1543 1542 1542 1541 1540 1540 1539 1539 1538 1537 1537 1536 1535 1535 1534 1534 1533 1533 1533 1532 1531 1530 1529 1529 1528 1528 1528 1527 1527 1526 1524 1523 1522 1521 1520
1546 1546 1547 1547 1547 1547 1547 1547 1547 1546 1546 1545 1545 1544 1544 1543 1542 1542 1541 1541 1540 1539 1539 1538 1538 1537 1537 1536 1535 1535 1534 1534 1533 1532 1532 1531 1531 1530 1530 1529 1528 1527 1527 1526 1526 1526 1525 1524 1523 1521 1520 1519
1546 1546 1546 1547 1547 1547 1547 1546 1546 1545 1545 1544 1543 1543 1542 1542 1541 1541 1540 1539 1539 1538 1538 1537 1537 1536 1536 1535 1534 1534 1533 1533 1532 1531 1531 1530 1530 1529 1529 1528 1527 1526 1525 1525 1524 1524 1523 1522 1522 1521 1520 1519
1545 1546 1546 1546 1546 1546 1546 1545 1545 1544 1544 1543 1543 1542 1541 1541 1540 1540 1539 1538 1538 1537 1536 1536 1535 1534 1534 1534 1533 1532 1532 1531 1530 1530 1529 1529 1528 1527 1527 1527 1526 1525 1524 1523 1522 1522 1521 1521 1520 1519 1519 1518
1545 1545 1545 1545 1545 1545 1545 1544 1544 1543 1543 1542 1542 1541 1540 1540 1539 1538 1538 1537 1536 1536 1535 1534 1533 1533 1532 1532 1531 1531 1530 1529 1529 1528 1527 1527 1526 1526 1525 1525 1525 1524 1523 1522 1521 1520 1519 1519 1518 1518 1517 1516
1544 1544 1544 1545 1544 1544 1544 1543 1543 1543 1542 1541 1541 1540 1539 1538 1538 1537 1536 1536 1535 1534 1533 1532 1532 1531 1530 1530 1529 1528 1528 1528 1527 1526 1525 1525 1524 1524 1523 1523 1522 1522 1522 1521 1519 1518 1517 1517 1516 1516 1515 1515
1543 1544 1544 1544 1544 1543 1543 1543 1542 1542 1541 1540 1540 1539 1538 1537 1536 1535 1535 1534 1533 1532 1531 1531 1530 1529 1528 1527 1527 1526 1526 1525 1525 1524 1523 1523 1522 1521 1521 1520 1520 1519 1519 1519 1518 1517 1516 1515 1514 1514 1513 1512
1542 1542 1543 1543 1542 1542 1542 1541 1541 1541 1540 1539 1538 1537 1536 1535 1535 1534 1533 1532 1531 1531 1529 1529 1528 1527 1526 1525 1525 1524 1523 1523 1522 1521 1521 1520 1520 1519 1518 1518 1517 1517 1516 1516 1516 1516 1515 1513 1512 1512 1511 1510
1541 1541 1541 1541 1541 1540 1540 1540 1539 1539 1538 1538 1537 1536 1535 1534 1533 1532 1531 1530 1529 1529 1527 1527 1526 1525 1524 1523 1522 1521 1520 1520 1519 1519 1518 1518 1517 1517 1516 1515 1515 1514 1513 1513 1513 1513 1513 1512 1511 1510 1509 1508
1539 1539 1539 1539 1538 1538 1538 1537 1537 1537 1536 1535 1535 1534 1533 1532 1531 1530 1529 1528 1527 1527 1525 1525 1524 1523 1522 1521 1520 1519 1518 1517 1516 1516 1515 1515 1515 1514 1514 1513 1512 1511 1511 1510 1510 1510 1510 1510 1509 1508 1507 1506
1537 1537 1537 1537 1536 1536 1535 1535 1534 1534 1533 1533 1532 1532 1531 1530 1529 1528 1527 1526 1525 1524 1523 1523 1522 1520 1519 1519 1518 1518 1516 1514 1513 1513 1512 1512 1511 1511 1511 1510 1510 1509 1508 1508 1507 1506 1507 1506 1506 1506 1505 1504
1536 1536 1535 1535 1534 1534 1533 1532 1532 1531 1531 1531 1530 1529 1529 1527 1526 1526 1525 1524 1523 1522 1521 1521 1519 1518 1517 1517 1516 1515 1514 1513 1511 1510 1510 1509 1508 1508 1508 1507 1507 1506 1505 1505 1504 1503 1503 1503 1503 1502 1502 1502
1535 1535 1534 1534 1533 1532 1532 1531 1531 1530 1530 1529 1528 1528 1527 1526 1525 1524 1523 1522 1521 1520 1519 1518 1517 1516 1515 1515 1514 1513 1512 1511 1509 1508 1507 1507 1506 1505 1504 1504 1504 1503 1502 1502 1502 1501 1500 1499 1499 1499 1499 1499
1534 1534 1533 1532 1532 1531 1530 1530 1529 1529 1528 1528 1527 1526 1525 1524 1523 1522 1521 1520 1519 1518 1517 1516 1515 1514 1513 1513 1513 1511 1510 1509 1507 1506 1505 1504 1504 1502 1501 1501 1501 1500 1499 1499 1499 1498 1497 1496 1496 1496 1495 1495
1533 1532 1532 1531 1530 1530 1529 1528 1528 1527 1527 1526 1525 1524 1524 1523 1522 1520 1519 1518 1517 1516 1515 1514 1514 1513 1512 1511 1511 1509 1508 1507 1506 1504 1503 1502 1501 1500 1499 1498 1498 1497 1496 1495 1495 1495 1494 1493 1493 1492 1492 1492
1532 1531 1531 1530 1529 1528 1528 1527 1526 1526 1525 1525 1524 1523 1522 1521 1520 1519 1518 1517 1515 1514 1513 1513 1512 1511 1511 1510 1509 1508 1506 1505 1504 1503 1502 1501 1499 1498 1497 1496 1495 1494 1493 1493 1492 1492 1491 1490 1489 1489 1489 1489
1530 1530 1529 1529 1528 1527 1526 1526 1525 1525 1524 1523 1523 1522 1521 1520 1519 1518 1517 1515 1514 1513 1512 1511 1510 1510 1509 1508 1507 1506 1505 1503 1502 1501 1500 1499 1497 1496 1495 1493 1493 1492 1491 1490 1489 1488 1488 1487 1486 1485 1485 1485
1529 1529 1529 1528 1527 1527 1526 1525 1524 1523 1523 1522 1521 1520 1520 1519 1518 1516 1515 1514 1512 1511 1510 1509 1508 1508 1507 1506 1505 1504 1503 1501 1500 1499 1498 1497 1495 1494 1493 1491 1491 1489 1488 1487 1486 1485 1484 1484 1483 1482 1482 1481
1529 1529 1528 1528 1527 1526 1525 1524 1523 1522 1522 1521 1520 1519 1518 1517 1516 1515 1513 1512 1511 1509 1508 1507 1506 1506 1505 1504 1503 1502 1501 1499 1498 1497 1495 1495 1493 1491 1490 1489 1488 1488 1486 1484 1483 1482 1481 1481 1480 1479 1478 1478
1528 1527 1527 1526 1526 1525 1524 1522 1521 1521 1520 1519 1518 1517 1516 1515 1514 1513 1512 1510 1509 1507 1506 1505 1504 1503 1502 1501 1500 1499 1498 1497 1496 1494 1493 1492 1491 1489 1488 1487 1486 1485 1484 1482 1480 1479 1479 1478 1477 1475 1475 1474
1526 1526 1525 1524 1524 1523 1522 1521 1520 1519 1518 1517 1516 1515 1514 1513 1512 1511 1510 1508 1506 1505 1504 1503 1501 1501 1500 1498 1497 1496 1495 1495 1494 1492 1491 1489 1489 1488 1486 1485 1483 1482 1481 1479 1477 1476 1476 1475 1473 1472 1472 1471
1525 1524 1523 1522 1522 1521 1520 1519 1519 1518 1517 1516 1515 1514 1513 1511 1510 1508 1507 1506 1504 1502 1501 1500 1499 1498 1497 1496 1495 1493 1492 1492 1491 1490 1489 1487 1487 1486 1484 1483 1482 1480 1478 1476 1474 1473 1473 1472 1470 1469 1469 1468
1523 1522 1521 1520 1519 1518 1518 1517 1516 1516 1515 1514 1513 1512 1511 1509 1507 1506 1504 1503 1501 1500 1498 1497 1496 1495 1495 1494 1492 1491 1490 1489 1489 1488 1486 1485 1484 1483 1482 1481 1480 1479 1476 1473 1472 1471 1470 1468 1467 1466 1466 1465
1521 1519 1518 1517 1516 1515 1515 1514 1513 1512 1512 1511 1510 1509 1507 1506 1504 1502 1501 1499 1498 1496 1495 1493 1492 1491 1491 1491 1489 1488 1487 1487 1486 1485 1484 1483 1482 1481 1479 1478 1478 1477 1474 1471 1469 1467 1465 1464 1464 1463 1462 1462
1520 1519 1517 1516 1515 1513 1512 1511 1510 1509 1508 1507 1506 1505 1503 1502 1500 1498 1497 1495 1494 1492 1491 1490 1488 1488 1487 1487 1486 1484 1484 1483 1483 1482 1482 1480 1479 1478 1477 1476 1476 1475 1473 1470 1468 1465 1461 1459 1459 1459 1458 1458
1518 1517 1516 1515 1513 1511 1509 1508 1507 1506 1504 1503 1501 1500 1499 1497 1496 1494 1492 1491 1490 1488 1487 1486 1485 1484 1483 1483 1482 1480 1479 1479 1479 1479 1479 1477 1476 1475 1474 1473 1473 1473 1471 1469 1468 1466 1461 1458 1455 1453 1453 1454
1517 1516 1515 1514 1512 1510 1508 1506 1505 1503 1501 1500 1497 1496 1494 1493 1491 1489 1488 1487 1486 1484 1483 1482 1481 1480 1479 1479 1478 1477 1475 1475 1474 1474 1474 1474 1473 1472 1470 1469 1469 1469 1468 1467 1467 1465 1462 1460 1457 1452 1450 1449
1515 1513 1511 1510 1508 1506 1504 1502 1500 1498 1496 1494 1492 1490 1488 1487 1485 1484 1483 1482 1481 1480 1479 1478 1477 1476 1475 1474 1474 1473 1471 1470 1470 1470 1470 1470 1469 1468 1467 1466 1465 1465 1465 1465 1464 1463 1461 1460 1457 1453 1451 1448
1512 1510 1508 1505 1502 1500 1497 1496 1494 1493 1490 1488 1487 1485 1484 1482 1481 1480 1479 1478 1477 1476 1475 1474 1473 1472 1471 1470 1469 1469 1467 1466 1466 1466 1466 1466 1465 1464 1463 1463 1461 1460 1462 1461 1459 1459 1459 1459 1456 1453 1452 1450
1510 1508 1505 1503 1501 1498 1496 1493 1491 1490 1488 1486 1484 1482 1480 1478 1477 1476 1475 1474 1473 1472 1471 1470 1469 1468 1467 1466 1465 1464 1463 1462 1462 1461 1461 1462 1460 1459 1459 1459 1456 1456 1458 1457 1455 1455 1455 1454 1454 1453 1452 1451